TimeCDT,TemperatureF,Dew PointF,Humidity,Sea Level PressureIn,VisibilityMPH,Wind Direction,Wind SpeedMPH,Gust SpeedMPH,PrecipitationIn,Events,Conditions,WindDirDegrees,DateUTC
12:15 AM,37.8,37.0,97,29.94,4.0,Calm,Calm,-,N/A,,Clear,0,2012-10-21 05:15:00
12:35 AM,37.4,36.5,97,29.93,0.8,Calm,Calm,-,N/A,,Mist,0,2012-10-21 05:35:00
12:55 AM,37.0,36.5,98,29.93,5.0,Calm,Calm,-,N/A,,Clear,0,2012-10-21 05:55:00
1:15 AM,37.0,36.7,99,29.93,4.0,ENE,3.5,-,N/A,,Clear,60,2012-10-21 06:15:00
1:35 AM,37.4,36.7,97,29.94,5.0,Calm,Calm,-,N/A,,Clear,0,2012-10-21 06:35:00
1:55 AM,38.7,37.9,97,29.94,7.0,Calm,Calm,-,N/A,,Clear,0,2012-10-21 06:55:00
2:15 AM,38.3,37.0,95,29.94,7.0,Calm,Calm,-,N/A,,Clear,0,2012-10-21 07:15:00
2:35 AM,38.5,37.4,96,29.94,4.0,Calm,Calm,-,N/A,,Clear,0,2012-10-21 07:35:00
2:55 AM,38.8,38.1,97,29.94,5.0,Calm,Calm,-,N/A,,Clear,0,2012-10-21 07:55:00
3:15 AM,38.1,37.4,97,29.94,5.0,Calm,Calm,-,N/A,,Clear,0,2012-10-21 08:15:00
3:35 AM,38.5,37.8,97,29.94,7.0,Calm,Calm,-,N/A,,Clear,0,2012-10-21 08:35:00
3:55 AM,38.1,37.2,97,29.94,5.0,Calm,Calm,-,N/A,,Clear,0,2012-10-21 08:55:00
4:15 AM,36.9,36.1,97,29.94,4.0,Calm,Calm,-,N/A,,Clear,0,2012-10-21 09:15:00
4:35 AM,38.1,37.6,98,29.95,5.0,Calm,Calm,-,N/A,,Clear,0,2012-10-21 09:35:00
4:55 AM,36.5,35.6,97,29.94,5.0,ENE,3.5,-,N/A,,Clear,60,2012-10-21 09:55:00
5:15 AM,36.9,36.1,97,29.94,7.0,East,3.5,-,N/A,,Clear,80,2012-10-21 10:15:00
5:35 AM,37.4,36.7,97,29.94,7.0,NE,4.6,-,N/A,,Clear,40,2012-10-21 10:35:00
5:55 AM,37.6,36.7,97,29.94,7.0,ENE,4.6,-,N/A,,Clear,70,2012-10-21 10:55:00
6:15 AM,37.8,36.9,97,29.95,7.0,NE,4.6,-,N/A,,Clear,50,2012-10-21 11:15:00
6:35 AM,37.6,36.7,97,29.94,7.0,East,5.8,-,N/A,,Clear,80,2012-10-21 11:35:00
6:55 AM,37.9,37.0,97,29.94,7.0,ENE,5.8,-,N/A,,Clear,70,2012-10-21 11:55:00
7:15 AM,38.5,37.6,97,29.95,5.0,ENE,3.5,-,N/A,,Clear,60,2012-10-21 12:15:00
7:35 AM,38.5,37.6,97,29.95,5.0,Calm,Calm,-,N/A,,Clear,0,2012-10-21 12:35:00
7:55 AM,39.4,38.5,97,29.95,5.0,Calm,Calm,-,N/A,,Clear,0,2012-10-21 12:55:00
8:15 AM,41.9,40.6,95,29.96,5.0,Calm,Calm,-,N/A,,Clear,0,2012-10-21 13:15:00
8:35 AM,46.2,43.9,92,29.96,7.0,SE,4.6,-,N/A,,Clear,130,2012-10-21 13:35:00
8:55 AM,48.7,45.0,87,29.97,10.0,SE,5.8,-,N/A,,Clear,140,2012-10-21 13:55:00
9:15 AM,50.4,45.3,83,29.97,10.0,SE,5.8,-,N/A,,Clear,130,2012-10-21 14:15:00
9:35 AM,52.0,45.7,79,29.97,10.0,SE,8.1,-,N/A,,Clear,130,2012-10-21 14:35:00
9:55 AM,53.2,45.7,76,29.96,10.0,SE,8.1,-,N/A,,Clear,130,2012-10-21 14:55:00
10:15 AM,54.5,46.2,74,29.97,10.0,ESE,8.1,-,N/A,,Clear,120,2012-10-21 15:15:00
10:35 AM,56.3,46.6,70,29.97,10.0,SE,8.1,-,N/A,,Clear,130,2012-10-21 15:35:00
10:55 AM,57.9,47.5,68,29.96,10.0,SE,8.1,-,N/A,,Clear,130,2012-10-21 15:55:00
11:15 AM,59.7,47.7,64,29.96,10.0,SE,9.2,-,N/A,,Clear,130,2012-10-21 16:15:00
11:35 AM,60.6,47.8,63,29.95,10.0,SE,9.2,-,N/A,,Clear,140,2012-10-21 16:35:00
11:55 AM,62.6,48.0,59,29.95,10.0,ESE,8.1,-,N/A,,Clear,110,2012-10-21 16:55:00
12:15 PM,63.9,47.7,56,29.95,10.0,ESE,5.8,-,N/A,,Clear,110,2012-10-21 17:15:00
12:35 PM,65.3,47.8,53,29.94,10.0,East,8.1,-,N/A,,Clear,100,2012-10-21 17:35:00
12:55 PM,66.4,47.7,51,29.93,10.0,ESE,9.2,-,N/A,,Clear,120,2012-10-21 17:55:00
1:15 PM,67.3,47.5,49,29.92,10.0,ESE,12.7,-,N/A,,Clear,120,2012-10-21 18:15:00
1:35 PM,68.0,48.4,49,29.91,10.0,SE,11.5,17.3,N/A,,Clear,130,2012-10-21 18:35:00
1:55 PM,68.7,48.4,48,29.91,10.0,SSE,12.7,-,N/A,,Clear,150,2012-10-21 18:55:00
2:15 PM,68.9,48.7,49,29.91,10.0,SSE,12.7,-,N/A,,Clear,150,2012-10-21 19:15:00
2:35 PM,69.4,50.0,50,29.91,10.0,SSE,13.8,-,N/A,,Clear,150,2012-10-21 19:35:00
2:55 PM,69.8,50.0,49,29.90,10.0,SE,10.4,-,N/A,,Clear,140,2012-10-21 19:55:00
3:15 PM,70.2,50.2,49,29.90,10.0,SE,11.5,-,N/A,,Clear,140,2012-10-21 20:15:00
3:35 PM,70.3,50.2,49,29.90,10.0,SE,9.2,-,N/A,,Clear,140,2012-10-21 20:35:00
3:55 PM,70.2,50.0,49,29.90,10.0,SSE,11.5,-,N/A,,Clear,150,2012-10-21 20:55:00
4:15 PM,70.2,50.0,49,29.89,10.0,SE,8.1,-,N/A,,Clear,140,2012-10-21 21:15:00
4:35 PM,68.2,50.9,54,29.89,10.0,SE,8.1,-,N/A,,Clear,140,2012-10-21 21:35:00
5:35 PM,67.1,51.8,58,29.89,10.0,SE,9.2,-,N/A,,Clear,140,2012-10-21 22:35:00
5:55 PM,64.4,52.0,64,29.89,10.0,SE,6.9,-,N/A,,Clear,130,2012-10-21 22:55:00
6:15 PM,63.5,50.9,63,29.90,10.0,ESE,6.9,-,N/A,,Clear,120,2012-10-21 23:15:00
6:35 PM,61.9,50.9,67,29.90,10.0,ESE,5.8,-,N/A,,Clear,110,2012-10-21 23:35:00
6:55 PM,60.8,50.9,70,29.90,10.0,ESE,5.8,-,N/A,,Clear,110,2012-10-21 23:55:00
7:15 PM,59.5,50.9,73,29.90,10.0,ESE,5.8,-,N/A,,Clear,110,2012-10-22 00:15:00
7:35 PM,58.5,50.5,75,29.91,10.0,East,4.6,-,N/A,,Clear,90,2012-10-22 00:35:00
7:55 PM,58.5,50.5,75,29.91,10.0,East,4.6,-,N/A,,Clear,100,2012-10-22 00:55:00
8:15 PM,57.6,50.4,77,29.91,10.0,ENE,5.8,-,N/A,,Clear,70,2012-10-22 01:15:00
8:35 PM,56.7,50.0,78,29.91,10.0,ENE,4.6,-,N/A,,Clear,70,2012-10-22 01:35:00
8:55 PM,56.7,50.4,79,29.92,10.0,East,4.6,-,N/A,,Clear,80,2012-10-22 01:55:00
9:15 PM,55.8,50.2,82,29.93,10.0,East,3.5,-,N/A,,Clear,80,2012-10-22 02:15:00
9:35 PM,54.7,50.0,84,29.93,10.0,East,4.6,-,N/A,,Clear,100,2012-10-22 02:35:00
9:55 PM,54.9,50.2,84,29.94,10.0,ESE,4.6,-,N/A,,Clear,120,2012-10-22 02:55:00
10:15 PM,56.5,51.3,83,29.93,10.0,SE,5.8,-,N/A,,Clear,130,2012-10-22 03:15:00
10:35 PM,57.2,51.4,81,29.93,10.0,SE,4.6,-,N/A,,Clear,130,2012-10-22 03:35:00
10:55 PM,57.2,51.4,81,29.93,10.0,SE,4.6,-,N/A,,Clear,140,2012-10-22 03:55:00
11:15 PM,56.7,51.4,83,29.93,10.0,SE,4.6,-,N/A,,Clear,130,2012-10-22 04:15:00
11:35 PM,56.8,51.8,83,29.93,10.0,SE,6.9,-,N/A,,Clear,140,2012-10-22 04:35:00
11:55 PM,56.7,52.0,84,29.93,10.0,SE,3.5,-,N/A,,Clear,140,2012-10-22 04:55:00